Theta_e
334 334 333 325 328 325 329 333 333 334 332 331 332 328 326 328 329 330 330 322 319 317 316 318 318 317 317 317 320 325 326 324 322 314 319 328 326 323 319 314 311 316 320
331 333 324 322 324 326 331 332 333 333 333 333 333 327 325 329 329 326 324 319 322 317 315 315 313 313 315 318 324 325 326 325 324 317 311 311 320 313 306 306 314 314 320
332 328 325 322 320 322 329 332 333 333 333 334 333 330 327 328 330 324 323 328 322 314 313 313 313 314 315 316 322 325 326 324 322 314 307 307 309 307 305 306 307 311 312
332 328 323 317 316 317 325 331 333 334 332 330 333 330 328 327 329 326 327 326 317 313 313 312 313 313 313 313 318 325 324 324 320 310 310 310 311 312 313 315 315 315 315
332 324 320 314 313 313 317 323 330 330 328 327 328 329 329 326 329 327 324 324 317 313 313 313 313 313 313 316 319 322 318 315 314 315 315 315 316 316 316 317 317 318 318
331 325 317 314 318 315 313 315 318 322 325 329 329 328 327 323 326 327 321 314 313 313 314 315 315 315 315 316 318 320 317 315 316 316 317 317 318 318 318 318 319 320 320
332 327 315 320 328 324 318 317 317 325 327 327 328 328 327 323 327 322 313 313 313 314 315 315 315 315 315 316 317 317 316 316 317 317 317 318 321 319 319 319 320 321 322
333 328 315 325 330 326 321 316 311 314 322 325 320 324 327 323 319 313 312 313 314 315 315 316 315 315 315 316 317 318 317 318 318 318 319 322 323 323 322 322 323 324 324
333 329 315 324 330 326 324 314 311 311 310 314 311 310 317 321 313 313 313 313 314 315 317 317 316 317 317 318 318 318 318 319 319 319 319 320 323 323 324 324 324 324 324
332 329 318 319 328 328 323 316 314 314 316 313 311 311 311 311 312 312 313 314 315 316 318 318 318 317 317 318 318 319 320 319 319 320 320 320 320 321 321 321 322 322 323
332 331 321 315 320 325 324 316 314 314 314 313 312 312 312 312 312 312 313 314 316 317 318 319 317 317 318 318 318 319 320 320 320 320 320 319 319 322 322 323 323 323 321
331 331 325 315 315 316 319 316 313 312 313 313 313 313 314 314 313 313 314 315 316 318 319 319 319 318 317 317 318 319 320 320 320 320 319 319 321 322 322 321 321 320 318
331 331 330 319 319 314 313 314 314 314 313 313 314 315 316 316 315 315 315 315 316 318 318 319 319 319 318 318 319 319 320 320 319 319 320 319 319 319 318 319 317 316 318
332 332 331 325 322 317 313 313 314 316 318 316 317 316 317 316 317 317 317 317 317 317 318 318 319 319 318 319 319 320 320 320 319 319 320 318 318 318 314 312 314 314 310
330 332 331 329 321 318 314 315 315 316 317 318 319 318 317 318 318 318 319 319 319 319 319 319 320 320 319 320 319 319 319 320 320 320 319 318 317 314 308 306 313 304 300
327 329 331 331 324 318 319 318 317 317 317 318 318 318 318 319 319 320 320 320 320 319 319 320 320 320 320 320 319 320 321 321 320 320 319 318 316 311 300 300 299 298 298
328 324 332 332 330 320 319 319 321 319 319 319 319 319 320 320 321 321 321 321 321 319 319 320 319 320 320 320 320 323 322 323 321 320 319 316 314 308 299 298 298 298 297
330 324 325 332 331 326 322 320 320 320 320 320 320 320 321 321 321 321 321 322 322 320 319 319 320 320 320 320 321 322 322 322 321 319 318 316 312 303 298 298 298 298 297
330 326 319 322 330 327 326 322 320 319 318 319 320 320 320 321 321 322 322 323 323 323 320 320 321 320 320 320 322 320 321 321 320 319 317 314 308 299 297 298 297 297 296
331 329 323 317 320 326 326 323 320 320 319 319 319 319 319 320 321 322 323 324 324 324 323 322 321 320 320 320 319 319 322 321 319 318 316 310 301 298 297 297 296 296 295
333 331 327 321 319 317 321 323 319 317 318 318 319 319 319 320 321 323 324 325 323 322 324 323 321 321 320 319 319 321 322 319 318 316 315 311 303 297 297 296 296 296 295
334 333 331 326 320 316 316 317 320 317 316 317 318 318 319 320 321 322 324 325 324 323 323 323 322 321 320 319 319 319 319 318 316 315 315 313 305 298 296 295 295 295 294
332 331 332 330 323 317 316 317 317 318 318 318 319 319 320 321 321 322 325 326 325 323 321 321 321 320 320 319 319 319 319 318 317 313 313 312 309 300 296 295 295 295 294
326 325 329 330 328 321 318 318 318 318 318 318 318 320 320 321 322 323 325 327 325 324 322 322 321 321 321 320 320 320 319 318 317 312 311 311 310 303 298 296 294 294 293
326 324 325 328 328 326 322 319 318 319 319 319 320 320 321 322 323 325 325 327 326 324 324 322 322 321 321 322 323 323 321 319 318 317 313 309 308 304 300 296 294 294 292
324 325 325 327 328 329 327 325 323 320 319 319 320 320 321 324 326 326 327 328 326 324 324 323 323 322 323 323 324 323 323 320 319 318 315 311 307 302 299 297 295 293 292
Wind_Speed
16 16 11 8 10 10 12 14 15 14 13 12 12 13 12 12 10 9 9 8 11 12 14 15 15 14 17 19 20 21 21 21 21 19 20 22 20 20 19 20 20 20 20
18 15 9 10 12 12 12 13 13 13 11 10 10 12 12 14 13 11 12 15 18 16 16 15 15 17 19 20 21 22 22 19 17 22 20 20 20 20 20 20 21 20 21
16 12 12 11 11 12 13 13 13 12 9 7 8 11 13 16 15 12 17 20 18 17 17 18 18 18 19 19 19 19 19 14 17 19 20 22 23 22 22 22 22 22 22
14 12 12 12 12 12 14 14 12 11 9 11 12 11 14 16 16 15 18 18 17 18 19 18 18 18 17 18 18 17 15 12 12 17 22 24 24 23 23 23 23 23 23
14 13 12 13 13 12 12 13 12 8 7 13 17 13 15 18 18 15 14 17 17 18 19 18 18 18 19 19 18 17 18 18 18 21 22 23 23 22 21 21 22 22 22
11 12 13 13 13 13 13 11 10 13 15 21 19 15 14 16 17 14 13 15 17 17 18 18 18 19 19 18 18 17 19 19 19 19 19 20 21 20 20 20 21 20 20
14 12 13 14 13 12 13 13 13 17 16 17 19 18 15 15 16 14 16 16 16 17 17 18 18 19 19 18 18 17 18 17 17 16 15 19 18 17 18 18 18 18 17
14 14 14 16 14 12 12 11 9 12 17 15 16 17 16 12 14 13 15 15 15 16 17 17 18 18 17 17 16 16 14 16 15 15 15 16 16 16 16 15 15 14 15
13 13 15 16 14 12 11 10 9 9 11 12 12 12 15 15 14 14 14 13 14 15 16 16 16 16 16 15 14 13 12 13 13 14 14 14 13 10 11 12 11 13 13
12 12 14 16 15 14 12 11 10 11 12 14 12 11 12 13 15 14 12 12 13 14 14 14 15 15 14 12 11 11 10 11 11 12 12 11 11 10 10 9 10 10 10
13 11 14 16 15 13 12 12 11 11 13 12 13 12 12 13 13 13 12 12 12 12 12 12 12 12 11 10 10 10 9 8 8 9 10 11 11 13 10 11 10 7 7
18 14 15 16 16 15 13 13 12 12 13 12 12 12 12 12 11 11 10 10 11 10 10 9 8 6 7 7 9 7 5 5 7 8 9 10 11 7 7 7 6 4 7
21 17 14 15 14 14 15 15 14 14 14 13 11 10 10 11 10 10 9 9 9 8 7 6 6 5 5 7 7 5 3 4 7 7 8 8 5 5 9 11 8 13 13
25 20 17 17 15 15 16 15 14 14 14 14 12 10 9 9 9 9 8 7 7 7 6 6 5 4 4 5 5 5 3 4 6 7 7 8 7 7 7 8 12 13 7
27 25 21 20 20 17 18 17 16 14 13 12 12 10 10 9 8 8 7 5 5 5 4 4 5 4 4 4 3 2 3 5 6 7 6 6 6 7 6 7 11 8 12
30 28 24 23 22 20 19 18 17 16 15 13 11 10 10 9 7 5 5 5 4 4 4 4 3 3 4 2 2 2 3 5 6 6 6 6 5 5 4 3 7 10 12
29 30 30 27 24 24 21 20 18 16 16 14 13 13 12 10 9 8 7 6 6 5 5 5 5 4 4 2 1 1 2 5 7 7 8 6 5 3 4 6 8 10 11
26 33 31 30 28 26 24 23 21 18 17 16 16 15 14 11 10 10 10 9 8 7 8 8 7 5 3 2 2 3 5 5 10 7 8 8 4 4 5 6 8 9 10
29 31 33 32 33 29 27 26 24 21 20 18 18 17 16 15 14 14 12 11 10 10 11 11 9 6 4 4 3 7 7 6 9 7 8 9 7 5 6 7 7 8 9
32 30 32 31 33 31 29 29 27 24 23 22 22 20 18 19 18 17 15 14 13 15 15 14 11 9 7 4 5 8 9 8 9 10 9 7 7 6 7 6 5 6 7
32 33 34 33 32 35 34 32 32 30 28 26 26 24 22 21 20 19 17 15 14 15 15 16 13 12 10 8 8 8 7 7 10 12 11 10 10 8 8 7 6 6 7
36 34 36 36 34 35 35 33 34 32 31 28 27 26 25 24 23 21 21 19 16 12 15 18 17 15 12 11 12 10 8 8 9 12 14 14 12 10 9 8 6 5 6
38 39 40 38 36 35 35 34 34 34 32 32 31 30 30 28 26 24 22 21 20 17 16 17 17 15 15 15 17 16 8 10 16 14 17 19 17 14 11 10 8 6 6
36 36 39 40 38 37 36 37 38 38 39 37 34 32 31 31 30 27 25 25 24 23 22 20 19 19 20 20 21 21 20 18 12 12 18 20 19 18 14 11 10 8 6
34 35 39 40 40 39 39 40 39 40 39 37 36 34 32 33 33 31 29 29 27 27 26 26 24 25 26 26 26 25 23 21 22 22 20 22 22 21 16 12 11 9 6
36 34 36 39 41 41 41 42 42 41 41 40 40 38 37 35 34 33 32 32 31 28 28 30 29 29 30 28 27 27 27 25 25 28 28 21 23 20 18 15 12 10 6
Wind_Direction
144 151 137 141 122 121 119 115 116 124 119 113 103 94 94 89 85 109 111 105 105 101 93 89 91 87 85 84 82 79 67 56 53 62 83 81 74 73 70 64 68 70 67
146 151 141 137 128 126 122 118 119 119 122 118 105 96 95 98 89 87 110 97 91 94 93 92 89 85 88 91 85 80 76 67 60 60 70 76 78 69 69 69 67 67 65
155 150 139 129 131 138 136 124 122 125 121 115 107 99 96 101 105 108 93 92 91 89 86 84 85 90 93 95 95 90 92 84 60 59 71 74 73 71 69 68 67 65 63
159 150 134 128 131 145 144 138 133 126 130 119 127 113 105 111 100 97 99 94 91 89 86 86 88 90 95 100 105 104 93 86 62 73 75 75 74 72 69 68 67 65 63
153 144 135 125 129 138 148 153 163 173 128 112 118 112 109 123 113 106 102 99 93 91 90 89 91 96 99 99 96 86 84 84 83 78 76 75 74 71 70 67 65 62 60
145 142 132 130 132 133 136 152 164 125 119 122 125 124 118 127 117 115 112 99 99 96 95 94 94 93 95 97 96 88 79 81 79 75 75 74 69 69 66 63 61 59 57
156 147 141 138 132 129 129 129 125 121 125 132 132 129 119 123 123 115 103 101 103 99 98 95 92 93 94 95 94 89 87 80 74 73 71 73 68 63 60 60 57 53 49
164 155 151 142 142 130 117 134 143 136 135 132 133 131 120 112 129 117 106 104 103 101 98 96 95 95 96 93 88 84 76 76 70 64 59 64 57 49 54 56 50 46 40
169 165 156 152 150 141 128 132 135 137 137 128 123 135 132 131 123 122 113 109 106 102 101 99 98 97 95 92 88 83 78 74 63 58 55 56 71 59 50 46 43 43 42
179 174 165 165 160 152 144 139 138 135 133 134 128 120 126 120 114 118 116 112 111 108 105 105 102 100 96 91 84 82 71 67 59 52 49 47 48 56 53 53 44 47 45
188 186 175 175 169 165 158 149 151 145 139 138 134 137 132 123 122 126 122 118 113 110 111 108 107 106 102 95 87 87 75 60 54 44 38 35 41 49 56 65 63 49 41
185 193 182 181 179 179 174 162 157 154 150 147 146 149 139 129 132 130 126 120 116 117 120 122 115 107 97 96 94 92 83 42 35 27 24 26 55 57 50 59 52 33 29
184 195 191 192 179 180 182 175 170 164 164 164 162 158 141 133 133 131 133 136 134 132 136 128 120 108 92 94 99 91 64 22 16 13 15 17 59 38 45 58 58 64 69
184 191 195 196 198 177 184 182 180 178 175 176 176 164 162 154 152 151 142 140 144 156 162 147 134 123 116 110 100 87 65 358 9 358 3 11 25 31 27 29 67 73 61
196 186 198 203 203 192 187 185 188 188 185 184 179 169 172 175 171 162 161 157 166 170 169 167 163 159 142 128 97 44 4 345 342 344 346 4 12 19 35 62 78 23 13
203 195 194 209 204 200 197 196 194 194 192 195 185 185 187 185 184 181 185 194 192 199 207 198 192 175 150 121 68 4 337 328 326 321 326 339 3 17 38 0 1 6 6
204 201 198 206 209 204 200 204 207 202 201 198 195 200 203 196 199 203 212 216 216 221 220 211 199 182 171 143 9 331 325 314 314 307 313 330 346 347 340 338 349 356 2
213 207 203 206 209 208 203 206 211 213 212 209 205 207 213 215 217 222 228 232 230 225 215 207 198 195 196 202 250 251 290 269 310 288 292 306 316 313 318 330 345 348 354
218 212 213 212 213 208 208 210 215 218 218 220 221 218 220 227 229 233 235 239 239 231 225 219 209 208 213 232 253 288 294 276 291 273 286 295 297 294 312 334 342 345 353
222 220 221 218 220 218 215 212 219 222 223 225 228 229 227 230 233 235 239 241 245 240 230 221 212 205 207 212 256 284 282 284 299 277 275 265 269 283 308 314 334 341 352
225 224 224 219 222 223 221 212 217 223 224 226 229 233 233 233 236 239 243 243 251 251 236 222 221 217 212 223 230 248 238 277 275 276 277 268 277 280 294 300 319 331 343
224 227 228 226 223 224 224 223 221 226 232 234 233 236 239 240 239 240 242 244 252 257 233 222 227 228 225 234 236 236 207 211 222 258 278 274 269 275 285 286 292 304 324
223 229 228 227 225 225 226 226 226 228 231 232 232 236 239 241 243 243 242 244 244 240 242 234 231 233 236 238 242 232 211 224 218 226 250 266 271 267 275 280 284 287 313
228 227 227 230 228 228 227 227 228 228 230 234 237 240 243 245 248 245 242 243 243 244 235 242 235 239 246 244 245 242 237 245 206 208 234 252 260 262 265 273 276 276 307
231 230 228 230 231 231 231 233 233 234 238 242 243 244 245 246 248 250 244 241 241 241 244 240 242 247 252 249 247 246 243 235 244 242 229 229 245 250 256 262 264 268 299
235 233 231 231 234 234 233 235 236 237 240 241 244 246 246 247 248 249 245 241 243 241 241 241 242 245 250 255 250 249 251 248 254 245 243 239 238 244 247 254 255 255 274